Lid_Strength_Index
9 10 10 10 9 8 8 8 8 8 8 8 9 9 9 9 10 10 11 11 11 12 12 12 12 12 12 12 12 12 11 11
9 9 10 10 10 9 8 9 9 8 8 9 10 10 10 10 10 11 11 11 12 12 12 12 12 12 12 12 12 13 13 11
10 10 10 10 10 10 9 9 9 8 9 10 10 10 11 11 11 11 12 12 12 12 12 12 12 12 12 12 13 13 12 12
10 11 11 11 10 9 10 9 9 9 9 10 11 11 12 12 12 12 13 13 13 12 13 13 14 13 12 12 12 13 13 12
11 12 12 12 12 10 10 10 9 10 10 11 12 12 12 13 13 13 13 13 13 14 14 14 14 14 14 13 13 14 13 13
13 13 12 12 12 12 12 11 11 12 12 12 12 12 13 13 13 13 13 13 13 13 14 16 15 14 14 14 13 14 16 15
12 12 12 13 12 13 12 12 12 12 12 12 12 13 13 13 13 14 14 14 14 14 16 17 15 13 13 13 13 15 15 15
13 13 12 12 12 13 13 12 13 13 12 13 12 13 13 14 15 15 15 14 16 16 16 17 16 12 12 12 14 15 16 16
12 13 12 11 11 12 12 13 13 12 13 13 13 13 14 14 14 15 15 15 15 16 16 16 16 12 12 13 16 17 18 17
12 12 11 10 10 11 13 13 13 13 13 13 13 13 14 14 14 14 15 15 15 16 16 16 17 13 13 13 16 17 18 19
12 11 11 10 10 12 13 14 13 13 13 13 13 13 14 14 14 14 14 15 15 16 15 16 17 13 14 14 16 17 17 19
12 12 11 10 12 13 13 14 12 12 13 13 13 13 13 13 14 15 15 15 16 16 16 16 17 16 14 14 16 17 17 18
12 12 11 12 13 14 13 12 12 12 12 13 13 13 14 14 15 15 15 15 16 16 17 17 17 16 14 13 14 14 16 17
13 12 11 12 13 14 14 13 13 13 12 13 14 13 14 15 15 16 15 15 16 16 16 16 17 16 14 13 13 13 16 17
13 13 13 12 14 14 15 15 14 12 13 13 14 14 14 14 15 15 15 15 15 16 16 16 17 17 16 16 14 14 14 15
13 13 14 14 14 17 16 16 15 12 14 14 14 14 15 14 14 14 14 14 14 14 14 15 16 16 15 16 16 15 15 18
14 15 16 16 16 17 19 17 16 14 14 14 14 14 14 14 15 13 13 13 12 12 13 14 12 13 13 13 14 14 14 18
17 18 19 17 17 18 21 20 18 15 15 15 15 15 15 15 15 16 15 12 12 11 12 12 12 12 12 12 13 13 13 18
19 22 21 19 19 19 20 22 19 16 15 16 16 15 15 15 15 15 15 16 16 13 13 12 12 12 12 12 12 15 14 16
20 22 21 21 20 20 21 20 19 17 16 16 17 16 15 15 15 14 15 15 15 16 13 14 12 12 12 12 14 15 15 15